STARLINK-5706, 55488

Orbit data source: Space-Track

STARLINK-5706, 55488 is a payload satellite owned by SpaceX/Seattle (US) in LEO that was launched on Thu, 02 Feb 2023 UTC via an FALCON 9 launch vehicle from the Air Force Eastern Test Range (AFETR). Payload-class satellites include a variety of spacecraft equipped with specific instruments for various scientific and technological missions. These include communications satellites like Starlink; space stations such as the ISS; scientific satellites like the Hubble; Earth observation satellites from companies like Planet Labs, Umbra, and HawkEye 360; GPS; miniature CubeSats for education and research; and military/defense satellites.

Loading next visibility...
Identifier
55488, 2023-015AR
Orbit
LEO
Country
Flag of USUS
Related business
Manufacturer
SpaceX/Seattle
Mission
Operational Commercial Communications
Bus & Motor
STARLINK, Unknown motor
Mass
305 kg wet, ~290 kg dry
Launch date (UTC)
2023-02-02 (3 years ago)
Launch vehicle
FALCON 9
Launch site
Air Force Eastern Test Range (AFETR)
Object type
Payload
Rocket body
Debris
Shape & HBR
Box + 1 Pan, 10.1 m
Radar Cross Section
13.562 m², Large (>1 m²)

Expand to show TLE details & history
Last TLE update: 19 hours ago

TLE from 19 hours ago
0 STARLINK-5706
1 55488U 23015AR  26035.36755395  .00000782  00000-0  72962-4 0  9997
2 55488  43.0021 159.8506 0001476 269.5986  90.4687 15.02534770165593
Epoch: 2026-02-04T08:49Z
TLE epoch observation values (Epoch: 2026-02-04T08:49:16.661Z)
Latitude
-0.00002°
Longitude
-107.00399°
Altitude
558.87 km
Speed
7.584 km/s
True Right ascension
10h 39m 24s
True Declination
0° 00' 00"
Sunlit
Object was in full shadow at epoch
Visualization orbit readout
Latitude
Unknown
Longitude
Unknown
Altitude
Unknown
Speed
Unknown
Apparent Right ascension
Unknown
Apparent Declination
Unknown
Sunlit
N/A
Visualization observer readout
Local Sidereal Time
06:07:26
Azimuth
Unknown
Elevation
Unknown
Doppler factor
Unknown
Orbital elements
Apogee altitude
562.031 km
Perigee altitude
559.983 km
Semi-major axis
6,939.144 km
Eccentricity
0.00015
Inclination
43.0021°
RAAN
159.8506°
Arg. of periapsis
269.5986°
True anomaly
90.48561°
Mean anomaly
90.4687°
Eccentric anomaly
90.47716°
Mean motion
3.75478 °/min
Orbital period
95.88 mins
BSTAR
0.000072962
Loading maneuver chart data...
Computing Atmospheric mass density...
Loading historical data...
Loading historical data...
Loading historical data...
Loading historical data...
Loading historical data...
Loading historical data...
Loading historical data...

Documentation

Showing up to 5 results
|